#Datum;Uhrzeit;WR;Pac;DaySum;Status;WR;Pac;DaySum;Status;Pdc1;Udc;Temp;WR;Pac;DaySum;Status;Pdc1;Udc;Temp;WR;Pac;DaySum;Status;Pdc1;Udc;Temp;WR;Pac;DaySum;Status;Pdc1;Pdc2;Udc1;Udc2;Temp;WR;Pac;DaySum;Status;Pdc1;Pdc2;Udc1;Udc2;Temp;WR;Pac;DaySum;Status;Pdc1;Udc;Temp;WR;Pac;DaySum;Status;Pdc1;Udc;Temp;WR;Pac;DaySum;Status;Pdc1;Udc;Temp
05.11.19;23:55:00;1;218;10018;0;2;0;2045;0;0;0;0;3;0;1212;0;0;0;0;4;0;1656;0;0;0;0;5;0;4570;0;0;0;0;0;0;6;0;3196;0;0;0;0;0;0;7;0;2060;0;0;0;0;8;0;2098;0;0;0;0;9;0;1083;0;0;0;0
05.11.19;23:50:00;1;248;9999;0;2;0;2045;0;0;0;0;3;0;1212;0;0;0;0;4;0;1656;0;0;0;0;5;0;4570;0;0;0;0;0;0;6;0;3196;0;0;0;0;0;0;7;0;2060;0;0;0;0;8;0;2098;0;0;0;0;9;0;1083;0;0;0;0
05.11.19;23:45:00;1;250;9979;0;2;0;2045;0;0;0;0;3;0;1212;0;0;0;0;4;0;1656;0;0;0;0;5;0;4570;0;0;0;0;0;0;6;0;3196;0;0;0;0;0;0;7;0;2060;0;0;0;0;8;0;2098;0;0;0;0;9;0;1083;0;0;0;0
05.11.19;23:40:00;1;275;9958;0;2;0;2045;0;0;0;0;3;0;1212;0;0;0;0;4;0;1656;0;0;0;0;5;0;4570;0;0;0;0;0;0;6;0;3196;0;0;0;0;0;0;7;0;2060;0;0;0;0;8;0;2098;0;0;0;0;9;0;1083;0;0;0;0
05.11.19;23:35:00;1;232;9935;0;2;0;2045;0;0;0;0;3;0;1212;0;0;0;0;4;0;1656;0;0;0;0;5;0;4570;0;0;0;0;0;0;6;0;3196;0;0;0;0;0;0;7;0;2060;0;0;0;0;8;0;2098;0;0;0;0;9;0;1083;0;0;0;0
05.11.19;23:30:00;1;207;9915;0;2;0;2045;0;0;0;0;3;0;1212;0;0;0;0;4;0;1656;0;0;0;0;5;0;4570;0;0;0;0;0;0;6;0;3196;0;0;0;0;0;0;7;0;2060;0;0;0;0;8;0;2098;0;0;0;0;9;0;1083;0;0;0;0
05.11.19;23:25:00;1;208;9898;0;2;0;2045;0;0;0;0;3;0;1212;0;0;0;0;4;0;1656;0;0;0;0;5;0;4570;0;0;0;0;0;0;6;0;3196;0;0;0;0;0;0;7;0;2060;0;0;0;0;8;0;2098;0;0;0;0;9;0;1083;0;0;0;0
05.11.19;23:20:00;1;208;9881;0;2;0;2045;0;0;0;0;3;0;1212;0;0;0;0;4;0;1656;0;0;0;0;5;0;4570;0;0;0;0;0;0;6;0;3196;0;0;0;0;0;0;7;0;2060;0;0;0;0;8;0;2098;0;0;0;0;9;0;1083;0;0;0;0
05.11.19;23:15:00;1;209;9863;0;2;0;2045;0;0;0;0;3;0;1212;0;0;0;0;4;0;1656;0;0;0;0;5;0;4570;0;0;0;0;0;0;6;0;3196;0;0;0;0;0;0;7;0;2060;0;0;0;0;8;0;2098;0;0;0;0;9;0;1083;0;0;0;0
05.11.19;23:10:00;1;219;9846;0;2;0;2045;0;0;0;0;3;0;1212;0;0;0;0;4;0;1656;0;0;0;0;5;0;4570;0;0;0;0;0;0;6;0;3196;0;0;0;0;0;0;7;0;2060;0;0;0;0;8;0;2098;0;0;0;0;9;0;1083;0;0;0;0
05.11.19;23:05:00;1;356;9827;0;2;0;2045;0;0;0;0;3;0;1212;0;0;0;0;4;0;1656;0;0;0;0;5;0;4570;0;0;0;0;0;0;6;0;3196;0;0;0;0;0;0;7;0;2060;0;0;0;0;8;0;2098;0;0;0;0;9;0;1083;0;0;0;0
05.11.19;23:00:00;1;346;9800;0;2;0;2045;0;0;0;0;3;0;1212;0;0;0;0;4;0;1656;0;0;0;0;5;0;4570;0;0;0;0;0;0;6;0;3196;0;0;0;0;0;0;7;0;2060;0;0;0;0;8;0;2098;0;0;0;0;9;0;1083;0;0;0;0
05.11.19;22:55:00;1;367;9771;0;2;0;2045;0;0;0;0;3;0;1212;0;0;0;0;4;0;1656;0;0;0;0;5;0;4570;2;0;0;0;0;0;6;0;3196;2;0;0;0;0;0;7;0;2060;0;0;0;0;8;0;2098;0;0;0;0;9;0;1083;0;0;0;0
05.11.19;22:50:00;1;333;9740;0;2;0;2045;0;0;0;0;3;0;1212;0;0;0;0;4;0;1656;0;0;0;0;5;0;4570;2;0;0;0;0;0;6;0;3196;2;0;0;0;0;0;7;0;2060;0;0;0;0;8;0;2098;0;0;0;0;9;0;1083;0;0;0;0
05.11.19;22:45:00;1;328;9712;0;2;0;2045;0;0;0;0;3;0;1212;0;0;0;0;4;0;1656;0;0;0;0;5;0;4570;2;0;0;0;0;0;6;0;3196;2;0;0;0;0;0;7;0;2060;0;0;0;0;8;0;2098;0;0;0;0;9;0;1083;0;0;0;0
05.11.19;22:40:00;1;310;9685;0;2;0;2045;0;0;0;0;3;0;1212;0;0;0;0;4;0;1656;0;0;0;0;5;0;4570;2;0;0;0;0;0;6;0;3196;2;0;0;0;0;0;7;0;2060;0;0;0;0;8;0;2098;0;0;0;0;9;0;1083;0;0;0;0
05.11.19;22:35:00;1;325;9659;0;2;0;2045;0;0;0;0;3;0;1212;0;0;0;0;4;0;1656;0;0;0;0;5;0;4570;2;0;0;0;0;0;6;0;3196;2;0;0;0;0;0;7;0;2060;0;0;0;0;8;0;2098;0;0;0;0;9;0;1083;0;0;0;0
05.11.19;22:30:00;1;280;9630;0;2;0;2045;0;0;0;0;3;0;1212;0;0;0;0;4;0;1656;0;0;0;0;5;0;4570;2;0;0;0;0;0;6;0;3196;2;0;0;0;0;0;7;0;2060;0;0;0;0;8;0;2098;0;0;0;0;9;0;1083;0;0;0;0
05.11.19;22:25:00;1;271;9607;0;2;0;2045;0;0;0;0;3;0;1212;0;0;0;0;4;0;1656;0;0;0;0;5;0;4570;2;0;0;0;0;0;6;0;3196;2;0;0;0;0;0;7;0;2060;0;0;0;0;8;0;2098;0;0;0;0;9;0;1083;0;0;0;0
05.11.19;22:20:00;1;232;9585;0;2;0;2045;0;0;0;0;3;0;1212;0;0;0;0;4;0;1656;0;0;0;0;5;0;4570;2;0;0;0;0;0;6;0;3196;2;0;0;0;0;0;7;0;2060;0;0;0;0;8;0;2098;0;0;0;0;9;0;1083;0;0;0;0
05.11.19;22:15:00;1;256;9566;0;2;0;2045;0;0;0;0;3;0;1212;0;0;0;0;4;0;1656;0;0;0;0;5;0;4570;2;0;0;0;0;0;6;0;3196;2;0;0;0;0;0;7;0;2060;0;0;0;0;8;0;2098;0;0;0;0;9;0;1083;0;0;0;0
05.11.19;22:10:00;1;258;9544;0;2;0;2045;0;0;0;0;3;0;1212;0;0;0;0;4;0;1656;0;0;0;0;5;0;4570;2;0;0;0;0;0;6;0;3196;2;0;0;0;0;0;7;0;2060;0;0;0;0;8;0;2098;0;0;0;0;9;0;1083;0;0;0;0
05.11.19;22:05:00;1;273;9523;0;2;0;2045;0;0;0;0;3;0;1212;0;0;0;0;4;0;1656;0;0;0;0;5;0;4570;2;0;0;0;0;0;6;0;3196;2;0;0;0;0;0;7;0;2060;0;0;0;0;8;0;2098;0;0;0;0;9;0;1083;0;0;0;0
05.11.19;22:00:00;1;251;9499;0;2;0;2045;0;0;0;0;3;0;1212;0;0;0;0;4;0;1656;0;0;0;0;5;0;4570;2;0;0;0;0;0;6;0;3196;2;0;0;0;0;0;7;0;2060;0;0;0;0;8;0;2098;0;0;0;0;9;0;1083;0;0;0;0
05.11.19;21:55:00;1;250;9478;0;2;0;2045;0;0;0;0;3;0;1212;0;0;0;0;4;0;1656;0;0;0;0;5;0;4570;2;0;0;0;0;0;6;0;3196;2;0;0;0;0;0;7;0;2060;0;0;0;0;8;0;2098;0;0;0;0;9;0;1083;0;0;0;0
05.11.19;21:50:00;1;255;9456;0;2;0;2045;0;0;0;0;3;0;1212;0;0;0;0;4;0;1656;0;0;0;0;5;0;4570;2;0;0;0;0;0;6;0;3196;2;0;0;0;0;0;7;0;2060;0;0;0;0;8;0;2098;0;0;0;0;9;0;1083;0;0;0;0
05.11.19;21:45:00;1;277;9435;0;2;0;2045;0;0;0;0;3;0;1212;0;0;0;0;4;0;1656;0;0;0;0;5;0;4570;2;0;0;0;0;0;6;0;3196;2;0;0;0;0;0;7;0;2060;0;0;0;0;8;0;2098;0;0;0;0;9;0;1083;0;0;0;0
05.11.19;21:40:00;1;278;9412;0;2;0;2045;0;0;0;0;3;0;1212;0;0;0;0;4;0;1656;0;0;0;0;5;0;4570;2;0;0;0;0;0;6;0;3196;2;0;0;0;0;0;7;0;2060;0;0;0;0;8;0;2098;0;0;0;0;9;0;1083;0;0;0;0
05.11.19;21:35:00;1;315;9388;0;2;0;2045;0;0;0;0;3;0;1212;0;0;0;0;4;0;1656;0;0;0;0;5;0;4570;2;0;0;0;0;0;6;0;3196;2;0;0;0;0;0;7;0;2060;0;0;0;0;8;0;2098;0;0;0;0;9;0;1083;0;0;0;0
05.11.19;21:30:00;1;524;9361;0;2;0;2045;0;0;0;0;3;0;1212;0;0;0;0;4;0;1656;0;0;0;0;5;0;4570;2;0;0;0;0;0;6;0;3196;2;0;0;0;0;0;7;0;2060;0;0;0;0;8;0;2098;0;0;0;0;9;0;1083;0;0;0;0
05.11.19;21:25:00;1;668;9297;0;2;0;2045;0;0;0;0;3;0;1212;0;0;0;0;4;0;1656;0;0;0;0;5;0;4570;2;0;0;0;0;0;6;0;3196;2;0;0;0;0;0;7;0;2060;0;0;0;0;8;0;2098;0;0;0;0;9;0;1083;0;0;0;0
05.11.19;21:20:00;1;321;9252;0;2;0;2045;0;0;0;0;3;0;1212;0;0;0;0;4;0;1656;0;0;0;0;5;0;4570;2;0;0;0;0;0;6;0;3196;2;0;0;0;0;0;7;0;2060;0;0;0;0;8;0;2098;0;0;0;0;9;0;1083;0;0;0;0
05.11.19;21:15:00;1;277;9224;0;2;0;2045;0;0;0;0;3;0;1212;0;0;0;0;4;0;1656;0;0;0;0;5;0;4570;2;0;0;0;0;0;6;0;3196;2;0;0;0;0;0;7;0;2060;0;0;0;0;8;0;2098;0;0;0;0;9;0;1083;0;0;0;0
05.11.19;21:10:00;1;281;9201;0;2;0;2045;0;0;0;0;3;0;1212;0;0;0;0;4;0;1656;0;0;0;0;5;0;4570;2;0;0;0;0;0;6;0;3196;2;0;0;0;0;0;7;0;2060;0;0;0;0;8;0;2098;0;0;0;0;9;0;1083;0;0;0;0
05.11.19;21:05:00;1;358;9177;0;2;0;2045;0;0;0;0;3;0;1212;0;0;0;0;4;0;1656;0;0;0;0;5;0;4570;2;0;0;0;0;0;6;0;3196;2;0;0;0;0;0;7;0;2060;0;0;0;0;8;0;2098;0;0;0;0;9;0;1083;0;0;0;0
05.11.19;21:00:00;1;412;9147;0;2;0;2045;0;0;0;0;3;0;1212;0;0;0;0;4;0;1656;0;0;0;0;5;0;4570;2;0;0;0;0;0;6;0;3196;2;0;0;0;0;0;7;0;2060;0;0;0;0;8;0;2098;0;0;0;0;9;0;1083;0;0;0;0
05.11.19;20:55:00;1;365;9112;0;2;0;2045;0;0;0;0;3;0;1212;0;0;0;0;4;0;1656;0;0;0;0;5;0;4570;2;0;0;0;0;0;6;0;3196;2;0;0;0;0;0;7;0;2060;0;0;0;0;8;0;2098;0;0;0;0;9;0;1083;0;0;0;0
05.11.19;20:50:00;1;405;9080;0;2;0;2045;0;0;0;0;3;0;1212;0;0;0;0;4;0;1656;0;0;0;0;5;0;4570;2;0;0;0;0;0;6;0;3196;2;0;0;0;0;0;7;0;2060;0;0;0;0;8;0;2098;0;0;0;0;9;0;1083;0;0;0;0
05.11.19;20:45:00;1;414;9047;0;2;0;2045;0;0;0;0;3;0;1212;0;0;0;0;4;0;1656;0;0;0;0;5;0;4570;2;0;0;0;0;0;6;0;3196;2;0;0;0;0;0;7;0;2060;0;0;0;0;8;0;2098;0;0;0;0;9;0;1083;0;0;0;0
05.11.19;20:40:00;1;413;9012;0;2;0;2045;0;0;0;0;3;0;1212;0;0;0;0;4;0;1656;0;0;0;0;5;0;4570;2;0;0;0;0;0;6;0;3196;2;0;0;0;0;0;7;0;2060;0;0;0;0;8;0;2098;0;0;0;0;9;0;1083;0;0;0;0
05.11.19;20:35:00;1;408;8977;0;2;0;2045;0;0;0;0;3;0;1212;0;0;0;0;4;0;1656;0;0;0;0;5;0;4570;2;0;0;0;0;0;6;0;3196;2;0;0;0;0;0;7;0;2060;0;0;0;0;8;0;2098;0;0;0;0;9;0;1083;0;0;0;0
05.11.19;20:30:00;1;403;8943;0;2;0;2045;0;0;0;0;3;0;1212;0;0;0;0;4;0;1656;0;0;0;0;5;0;4570;2;0;0;0;0;0;6;0;3196;2;0;0;0;0;0;7;0;2060;0;0;0;0;8;0;2098;0;0;0;0;9;0;1083;0;0;0;0
05.11.19;20:25:00;1;336;8909;0;2;0;2045;0;0;0;0;3;0;1212;0;0;0;0;4;0;1656;0;0;0;0;5;0;4570;2;0;0;0;0;0;6;0;3196;2;0;0;0;0;0;7;0;2060;0;0;0;0;8;0;2098;0;0;0;0;9;0;1083;0;0;0;0
05.11.19;20:20:00;1;340;8881;0;2;0;2045;0;0;0;0;3;0;1212;0;0;0;0;4;0;1656;0;0;0;0;5;0;4570;2;0;0;0;0;0;6;0;3196;2;0;0;0;0;0;7;0;2060;0;0;0;0;8;0;2098;0;0;0;0;9;0;1083;0;0;0;0
05.11.19;20:15:00;1;394;8852;0;2;0;2045;0;0;0;0;3;0;1212;0;0;0;0;4;0;1656;0;0;0;0;5;0;4570;2;0;0;0;0;0;6;0;3196;2;0;0;0;0;0;7;0;2060;0;0;0;0;8;0;2098;0;0;0;0;9;0;1083;0;0;0;0
05.11.19;20:10:00;1;452;8813;0;2;0;2045;0;0;0;0;3;0;1212;0;0;0;0;4;0;1656;0;0;0;0;5;0;4570;2;0;0;0;0;0;6;0;3196;2;0;0;0;0;0;7;0;2060;0;0;0;0;8;0;2098;0;0;0;0;9;0;1083;0;0;0;0
05.11.19;20:05:00;1;448;8777;0;2;0;2045;0;0;0;0;3;0;1212;0;0;0;0;4;0;1656;0;0;0;0;5;0;4570;2;0;0;0;0;0;6;0;3196;2;0;0;0;0;0;7;0;2060;0;0;0;0;8;0;2098;0;0;0;0;9;0;1083;0;0;0;0
05.11.19;20:00:00;1;633;8737;0;2;0;2045;0;0;0;0;3;0;1212;0;0;0;0;4;0;1656;0;0;0;0;5;0;4570;2;0;0;0;0;0;6;0;3196;2;0;0;0;0;0;7;0;2060;0;0;0;0;8;0;2098;0;0;0;0;9;0;1083;0;0;0;0
05.11.19;19:55:00;1;775;8680;0;2;0;2045;0;0;0;0;3;0;1212;0;0;0;0;4;0;1656;0;0;0;0;5;0;4570;2;0;0;0;0;0;6;0;3196;2;0;0;0;0;0;7;0;2060;0;0;0;0;8;0;2098;0;0;0;0;9;0;1083;0;0;0;0
05.11.19;19:50:00;1;616;8618;0;2;0;2045;0;0;0;0;3;0;1212;0;0;0;0;4;0;1656;0;0;0;0;5;0;4570;2;0;0;0;0;0;6;0;3196;2;0;0;0;0;0;7;0;2060;0;0;0;0;8;0;2098;0;0;0;0;9;0;1083;0;0;0;0
05.11.19;19:45:00;1;637;8568;0;2;0;2045;0;0;0;0;3;0;1212;0;0;0;0;4;0;1656;0;0;0;0;5;0;4570;2;0;0;0;0;0;6;0;3196;2;0;0;0;0;0;7;0;2060;0;0;0;0;8;0;2098;0;0;0;0;9;0;1083;0;0;0;0
05.11.19;19:40:00;1;645;8514;0;2;0;2045;0;0;0;0;3;0;1212;0;0;0;0;4;0;1656;0;0;0;0;5;0;4570;2;0;0;0;0;0;6;0;3196;2;0;0;0;0;0;7;0;2060;0;0;0;0;8;0;2098;0;0;0;0;9;0;1083;0;0;0;0
05.11.19;19:35:00;1;634;8459;0;2;0;2045;0;0;0;0;3;0;1212;0;0;0;0;4;0;1656;0;0;0;0;5;0;4570;2;0;0;0;0;0;6;0;3196;2;0;0;0;0;0;7;0;2060;0;0;0;0;8;0;2098;0;0;0;0;9;0;1083;0;0;0;0
05.11.19;19:30:00;1;591;8405;0;2;0;2045;0;0;0;0;3;0;1212;0;0;0;0;4;0;1656;0;0;0;0;5;0;4570;2;0;0;0;0;0;6;0;3196;2;0;0;0;0;0;7;0;2060;0;0;0;0;8;0;2098;0;0;0;0;9;0;1083;0;0;0;0
05.11.19;19:25:00;1;981;8353;0;2;0;2045;0;0;0;0;3;0;1212;0;0;0;0;4;0;1656;0;0;0;0;5;0;4570;2;0;0;0;0;0;6;0;3196;2;0;0;0;0;0;7;0;2060;0;0;0;0;8;0;2098;0;0;0;0;9;0;1083;0;0;0;0
05.11.19;19:20:00;1;949;8277;0;2;0;2045;0;0;0;0;3;0;1212;0;0;0;0;4;0;1656;0;0;0;0;5;0;4570;2;0;0;0;0;0;6;0;3196;2;0;0;0;0;0;7;0;2060;0;0;0;0;8;0;2098;0;0;0;0;9;0;1083;0;0;0;0
05.11.19;19:15:00;1;849;8199;0;2;0;2045;0;0;0;0;3;0;1212;0;0;0;0;4;0;1656;0;0;0;0;5;0;4570;2;0;0;0;0;0;6;0;3196;2;0;0;0;0;0;7;0;2060;0;0;0;0;8;0;2098;0;0;0;0;9;0;1083;0;0;0;0
05.11.19;19:10:00;1;729;8132;0;2;0;2045;0;0;0;0;3;0;1212;0;0;0;0;4;0;1656;0;0;0;0;5;0;4570;2;0;0;0;0;0;6;0;3196;2;0;0;0;0;0;7;0;2060;0;0;0;0;8;0;2098;0;0;0;0;9;0;1083;0;0;0;0
05.11.19;19:05:00;1;748;8073;0;2;0;2045;0;0;0;0;3;0;1212;0;0;0;0;4;0;1656;0;0;0;0;5;0;4570;2;0;0;0;0;0;6;0;3196;2;0;0;0;0;0;7;0;2060;0;0;0;0;8;0;2098;0;0;0;0;9;0;1083;0;0;0;0
05.11.19;19:00:00;1;1457;8005;0;2;0;2045;0;0;0;0;3;0;1212;0;0;0;0;4;0;1656;0;0;0;0;5;0;4570;2;0;0;0;0;0;6;0;3196;2;0;0;0;0;0;7;0;2060;0;0;0;0;8;0;2098;0;0;0;0;9;0;1083;0;0;0;0
05.11.19;18:55:00;1;757;7906;0;2;0;2045;0;0;0;0;3;0;1212;0;0;0;0;4;0;1656;0;0;0;0;5;0;4570;2;0;0;0;0;0;6;0;3196;2;0;0;0;0;0;7;0;2060;0;0;0;0;8;0;2098;0;0;0;0;9;0;1083;0;0;0;0
05.11.19;18:50:00;1;802;7840;0;2;0;2045;0;0;0;0;3;0;1212;0;0;0;0;4;0;1656;0;0;0;0;5;0;4570;2;0;0;0;0;0;6;0;3196;2;0;0;0;0;0;7;0;2060;0;0;0;0;8;0;2098;0;0;0;0;9;0;1083;0;0;0;0
05.11.19;18:45:00;1;888;7773;0;2;0;2045;0;0;0;0;3;0;1212;0;0;0;0;4;0;1656;0;0;0;0;5;0;4570;2;0;0;0;0;0;6;0;3196;2;0;0;0;0;0;7;0;2060;0;0;0;0;8;0;2098;0;0;0;0;9;0;1083;0;0;0;0
05.11.19;18:40:00;1;2765;7678;0;2;0;2045;0;0;0;0;3;0;1212;0;0;0;0;4;0;1656;0;0;0;0;5;0;4570;2;0;0;0;0;0;6;0;3196;2;0;0;0;0;0;7;0;2060;0;0;0;0;8;0;2098;0;0;0;0;9;0;1083;0;0;0;0
05.11.19;18:35:00;1;2685;7449;0;2;0;2045;0;0;0;0;3;0;1212;0;0;0;0;4;0;1656;0;0;0;0;5;0;4570;2;0;0;0;0;0;6;0;3196;2;0;0;0;0;0;7;0;2060;0;0;0;0;8;0;2098;0;0;0;0;9;0;1083;0;0;0;0
05.11.19;18:30:00;1;2636;7225;0;2;0;2045;0;0;0;0;3;0;1212;0;0;0;0;4;0;1656;0;0;0;0;5;0;4570;2;0;0;0;0;0;6;0;3196;2;0;0;0;0;0;7;0;2060;0;0;0;0;8;0;2098;0;0;0;0;9;0;1083;0;0;0;0
05.11.19;18:25:00;1;1187;7005;0;2;0;2045;0;0;0;0;3;0;1212;0;0;0;0;4;0;1656;0;0;0;0;5;0;4570;2;0;0;0;0;0;6;0;3196;2;0;0;0;0;0;7;0;2060;0;0;0;0;8;0;2098;0;0;0;0;9;0;1083;0;0;0;0
05.11.19;18:20:00;1;784;6929;0;2;0;2045;0;0;0;0;3;0;1212;0;0;0;0;4;0;1656;0;0;0;0;5;0;4570;2;0;0;0;0;0;6;0;3196;2;0;0;0;0;0;7;0;2060;0;0;0;0;8;0;2098;0;0;0;0;9;0;1083;0;0;0;0
05.11.19;18:15:00;1;950;6867;0;2;0;2045;0;0;0;0;3;0;1212;0;0;0;0;4;0;1656;0;0;0;0;5;0;4570;2;0;0;0;0;0;6;0;3196;2;0;0;0;0;0;7;0;2060;0;0;0;0;8;0;2098;0;0;0;0;9;0;1083;0;0;0;0
05.11.19;18:10:00;1;932;6784;0;2;0;2045;0;0;0;0;3;0;1212;0;0;0;0;4;0;1656;0;0;0;0;5;0;4570;2;0;0;0;0;0;6;0;3196;2;0;0;0;0;0;7;0;2060;0;0;0;0;8;0;2098;0;0;0;0;9;0;1083;0;0;0;0
05.11.19;18:05:00;1;1723;6703;0;2;0;2045;0;0;0;0;3;0;1212;0;0;0;0;4;0;1656;0;0;0;0;5;0;4570;2;0;0;0;0;0;6;0;3196;2;0;0;0;0;0;7;0;2060;0;0;0;0;8;0;2098;0;0;0;0;9;0;1083;0;0;0;0
05.11.19;18:00:00;1;4435;6568;0;2;0;2045;0;0;0;0;3;0;1212;0;0;0;0;4;0;1656;0;0;0;0;5;0;4570;2;0;0;0;0;0;6;0;3196;2;0;0;0;0;0;7;0;2060;0;0;0;0;8;0;2098;0;0;0;0;9;0;1083;0;0;0;0
05.11.19;17:55:00;1;3215;6174;0;2;0;2045;0;0;0;0;3;0;1212;0;0;0;0;4;0;1656;0;0;0;0;5;0;4570;2;0;0;0;0;0;6;0;3196;2;0;0;0;0;0;7;0;2060;0;0;0;0;8;0;2098;0;0;0;0;9;0;1083;0;0;0;0
05.11.19;17:50:00;1;634;5930;0;2;0;2045;0;0;0;0;3;0;1212;0;0;0;0;4;0;1656;0;0;0;0;5;0;4570;2;0;0;0;0;0;6;0;3196;2;0;0;0;0;0;7;0;2060;0;0;0;0;8;0;2098;0;0;0;0;9;0;1083;0;0;0;0
05.11.19;17:45:00;1;817;5872;0;2;0;2045;0;0;0;0;3;0;1212;0;0;0;0;4;0;1656;0;0;0;0;5;0;4570;2;0;0;0;0;0;6;0;3196;2;0;0;0;0;0;7;0;2060;0;0;0;0;8;0;2098;0;0;0;0;9;0;1083;0;0;0;0
05.11.19;17:40:00;1;748;5806;0;2;0;2045;0;0;0;0;3;0;1212;0;0;0;0;4;0;1656;0;0;0;0;5;0;4570;2;0;0;0;0;0;6;0;3196;2;0;0;0;0;0;7;0;2060;0;0;0;0;8;0;2098;0;0;0;0;9;0;1083;0;0;0;0
05.11.19;17:35:00;1;758;5746;0;2;0;2045;0;0;0;0;3;0;1212;0;0;0;0;4;0;1656;0;0;0;0;5;0;4570;2;0;0;0;0;0;6;0;3196;2;0;0;0;0;0;7;0;2060;0;0;0;0;8;0;2098;0;0;0;0;9;0;1083;0;0;0;0
05.11.19;17:30:00;1;846;5680;0;2;0;2045;0;0;0;0;3;0;1212;0;0;0;0;4;0;1656;0;0;0;0;5;0;4570;2;0;0;0;0;0;6;0;3196;2;0;0;0;0;0;7;0;2060;0;0;0;0;8;0;2098;0;0;0;0;9;0;1083;0;0;0;0
05.11.19;17:25:00;1;779;5605;0;2;0;2045;0;0;0;0;3;0;1212;0;0;0;0;4;0;1656;0;0;0;0;5;0;4570;2;0;0;0;0;0;6;0;3196;2;0;0;0;0;0;7;0;2060;0;0;0;0;8;0;2098;0;0;0;0;9;0;1083;0;0;0;0
05.11.19;17:20:00;1;995;5538;0;2;0;2045;0;0;0;0;3;0;1212;0;0;0;0;4;0;1656;0;0;0;0;5;0;4570;2;0;0;0;0;0;6;0;3196;2;0;0;0;0;0;7;0;2060;0;0;0;0;8;0;2098;0;0;0;0;9;0;1083;0;0;0;0
05.11.19;17:15:00;1;800;5448;0;2;0;2045;0;0;0;0;3;0;1212;0;0;0;0;4;0;1656;0;0;0;0;5;0;4570;2;0;0;0;0;0;6;0;3196;2;0;0;0;0;0;7;0;2060;0;0;0;0;8;0;2098;0;0;0;0;9;0;1083;0;0;0;0
05.11.19;17:10:00;1;1240;5371;0;2;0;2045;0;0;0;0;3;0;1212;0;0;0;0;4;0;1656;0;0;0;0;5;0;4570;2;0;0;0;0;0;6;0;3196;2;0;0;0;0;0;7;0;2060;0;0;0;0;8;0;2098;0;0;0;0;9;0;1083;0;0;0;0
05.11.19;17:05:00;1;727;5274;0;2;0;2045;0;0;0;0;3;0;1212;0;0;0;0;4;0;1656;0;0;0;0;5;0;4570;2;0;0;0;0;0;6;0;3196;2;0;0;0;0;0;7;0;2060;0;0;0;0;8;0;2098;0;0;0;0;9;0;1083;0;0;0;0
05.11.19;17:00:00;1;663;5204;0;2;0;2045;0;0;0;0;3;0;1212;0;0;73;5;4;0;1656;0;0;0;0;5;0;4570;2;0;0;0;0;0;6;0;3196;2;0;0;0;0;0;7;0;2060;0;0;0;0;8;0;2098;0;0;0;0;9;0;1083;0;0;0;0
05.11.19;16:55:00;1;732;5146;0;2;0;2045;0;0;224;12;3;0;1212;6;0;295;18;4;0;1656;0;0;32;7;5;0;4570;2;0;0;0;0;0;6;0;3196;2;0;0;0;0;0;7;0;2060;0;0;0;0;8;0;2098;0;0;0;0;9;0;1083;0;0;0;0
05.11.19;16:50:00;1;2591;5065;0;2;0;2045;6;0;307;15;3;0;1212;6;0;358;19;4;0;1656;2;0;91;15;5;0;4570;2;0;0;91;90;7;6;0;3196;0;1;0;11;11;6;7;0;2060;0;0;0;0;8;0;2098;0;0;0;0;9;0;1083;0;0;0;0
05.11.19;16:45:00;1;2565;4853;0;2;0;2045;6;0;339;15;3;0;1212;6;1;389;19;4;0;1656;1;0;128;15;5;0;4570;2;0;0;285;296;21;6;0;3196;23;7;1;365;261;25;7;0;2060;0;0;151;11;8;0;2098;0;0;157;11;9;0;1083;0;0;221;12
05.11.19;16:40:00;1;2449;4642;0;2;0;2045;6;0;367;15;3;0;1212;6;1;443;19;4;0;1656;1;0;170;16;5;5;4570;26;0;2;391;560;27;6;0;3196;23;5;2;298;414;25;7;0;2060;6;0;318;20;8;0;2098;6;0;324;19;9;0;1083;6;0;340;15
05.11.19;16:35:00;1;2356;4438;0;2;0;2045;6;0;392;15;3;0;1212;6;2;473;19;4;0;1656;1;0;207;16;5;0;4569;23;0;1;418;657;27;6;0;3196;23;5;2;379;564;26;7;0;2060;6;0;401;20;8;0;2098;6;0;407;19;9;0;1083;6;0;416;15
05.11.19;16:30:00;1;1567;4251;0;2;0;2045;6;0;405;16;3;2;1212;6;4;494;19;4;0;1656;3;0;216;16;5;70;4568;4;8;24;365;579;28;6;0;3196;8;5;2;430;580;26;7;0;2060;3;3;421;20;8;1;2098;3;3;425;19;9;0;1083;6;1;470;15
05.11.19;16:25:00;1;277;4161;0;2;0;2045;6;0;404;16;3;4;1212;3;10;458;19;4;0;1656;3;0;219;16;5;70;4562;4;7;17;365;579;27;6;0;3196;8;10;1;460;580;26;7;0;2060;6;4;414;20;8;0;2097;6;4;326;16;9;2;1083;6;3;445;16
05.11.19;16:20:00;1;252;4137;0;2;0;2045;6;0;401;16;3;2;1211;6;3;490;19;4;0;1656;3;0;219;17;5;22;4557;26;0;8;407;649;27;6;0;3196;8;8;1;437;577;27;7;0;2060;6;1;432;20;8;0;2097;6;1;436;20;9;0;1083;6;1;475;16
05.11.19;16:15:00;1;364;4115;0;2;0;2045;6;0;406;16;3;0;1211;6;5;492;19;4;0;1656;3;0;209;17;5;76;4555;4;8;26;366;581;28;6;0;3196;8;5;2;517;581;27;7;0;2060;6;2;435;20;8;0;2097;6;2;439;20;9;1;1083;4;1;479;16
05.11.19;16:10:00;1;293;4083;0;2;0;2045;6;0;409;16;3;0;1211;6;5;492;19;4;0;1656;3;0;214;17;5;86;4548;4;14;28;366;581;28;6;54;3195;4;22;23;438;442;28;7;1;2060;6;2;443;21;8;0;2097;6;2;446;20;9;5;1083;3;7;431;16
05.11.19;16:05:00;1;220;4059;0;2;0;2045;6;0;410;16;3;0;1211;6;5;497;19;4;0;1656;3;0;214;17;5;86;4541;4;16;31;366;581;28;6;55;3191;4;22;25;438;442;28;7;0;2060;6;0;467;21;8;0;2097;6;0;470;20;9;2;1082;6;2;386;12
05.11.19;16:00:00;1;223;4041;0;2;24;2045;6;36;387;17;3;1;1211;6;5;516;19;4;8;1656;3;8;198;17;5;128;4534;4;38;49;366;581;28;6;82;3186;4;42;46;438;442;28;7;5;2060;3;13;442;21;8;9;2097;3;12;446;21;9;0;1082;6;3;515;16
05.11.19;15:55:00;1;243;4022;0;2;76;2043;4;104;363;17;3;5;1211;3;13;531;19;4;29;1655;3;31;198;17;5;212;4523;4;92;91;366;581;28;6;138;3179;4;67;77;438;442;28;7;64;2060;4;92;376;21;8;62;2096;4;92;415;21;9;14;1082;6;22;508;17
05.11.19;15:50:00;1;246;4002;0;2;100;2037;4;126;356;17;3;19;1210;6;30;528;19;4;61;1652;3;63;198;17;5;264;4505;4;113;116;366;581;28;6;172;3167;4;87;92;438;442;28;7;101;2054;4;132;409;21;8;98;2091;4;133;404;21;9;8;1081;6;12;554;17
05.11.19;15:45:00;1;281;3981;0;2;142;2029;4;173;370;17;3;81;1209;4;116;470;20;4;105;1647;3;109;215;17;5;378;4482;4;177;165;376;594;28;6;248;3152;4;114;126;438;471;28;7;145;2046;4;187;449;21;8;152;2083;4;185;430;21;9;82;1080;4;106;476;17
05.11.19;15:40:00;1;230;3958;0;2;245;2017;4;276;374;17;3;149;1202;4;186;506;20;4;210;1639;5;219;229;17;5;607;4449;4;288;260;403;641;28;6;379;3130;4;199;211;438;472;28;7;305;2034;4;340;460;21;8;298;2070;4;337;472;21;9;164;1073;4;190;505;17
05.11.19;15:35:00;1;248;3938;0;2;162;1996;4;192;369;17;3;94;1189;4;130;496;20;4;120;1621;5;125;222;17;5;383;4399;4;180;168;366;581;28;6;252;3099;4;125;130;438;442;28;7;171;2008;4;217;458;21;8;194;2046;4;225;452;21;9;104;1060;4;130;496;17
05.11.19;15:30:00;1;249;3918;0;2;155;1983;4;182;367;17;3;88;1182;4;123;490;20;4;112;1611;5;117;222;18;5;366;4368;4;170;161;366;581;28;6;240;3078;4;133;138;438;442;28;7;160;1994;4;187;455;21;8;152;2029;4;194;457;21;9;86;1051;4;110;473;17
05.11.19;15:25:00;1;265;3897;0;2;140;1970;4;168;378;17;3;79;1174;4;116;478;20;4;96;1602;5;99;207;18;5;333;4337;4;153;141;366;581;28;6;221;3058;4;118;121;438;442;28;7;133;1980;4;172;450;21;8;136;2017;4;175;454;21;9;77;1044;4;102;466;17
05.11.19;15:20:00;1;251;3875;0;2;144;1958;4;172;369;18;3;81;1168;4;118;462;20;4;94;1594;3;97;216;18;5;326;4310;4;150;138;366;581;28;6;213;3040;4;98;103;438;442;28;7;122;1969;4;159;435;21;8;128;2005;4;163;432;21;9;67;1037;4;92;454;17
05.11.19;15:15:00;1;249;3854;0;2;146;1946;4;175;377;18;3;85;1161;4;120;473;20;4;98;1586;5;102;223;18;5;323;4282;4;149;135;366;581;28;6;210;3022;4;99;102;438;442;28;7;132;1959;4;158;409;21;8;135;1994;4;163;430;21;9;68;1031;4;93;455;17
05.11.19;15:10:00;1;284;3832;0;2;145;1934;4;175;367;18;3;82;1154;4;118;488;20;4;105;1578;5;110;222;18;5;330;4255;4;149;138;366;581;28;6;214;3004;4;107;108;438;442;28;7;132;1948;4;162;389;21;8;133;1983;4;168;396;21;9;73;1026;4;97;474;17
05.11.19;15:05:00;1;246;3808;0;2;179;1922;4;207;370;18;3;104;1147;4;143;480;20;4;134;1569;5;140;221;18;5;380;4228;4;178;171;366;581;28;6;247;2986;4;122;125;438;442;28;7;155;1937;4;188;414;21;8;164;1972;4;198;441;21;9;86;1019;4;113;493;17
05.11.19;15:00:00;1;258;3787;0;2;193;1907;4;223;376;18;3;114;1138;4;152;493;20;4;150;1558;5;156;226;18;5;403;4196;4;195;176;366;581;28;6;265;2965;4;141;144;438;442;28;7;194;1924;4;226;450;21;8;192;1958;4;230;458;21;9;69;1012;4;87;322;11
05.11.19;14:55:00;1;286;3765;0;2;138;1891;4;166;373;18;3;75;1129;4;111;494;20;4;91;1545;5;95;207;18;5;312;4163;4;143;132;366;581;28;6;204;2943;4;104;102;438;442;28;7;126;1908;4;165;450;21;8;136;1943;4;170;459;21;9;19;1004;4;24;555;17
05.11.19;14:50:00;1;267;3742;0;2;179;1879;4;210;369;18;3;104;1122;4;142;502;20;4;135;1537;5;141;219;18;5;380;4136;4;183;166;366;581;28;6;252;2926;4;114;119;437;442;28;7;184;1897;4;214;440;21;8;182;1931;4;219;446;21;9;96;1002;4;126;487;18
05.11.19;14:45:00;1;267;3720;0;2;236;1864;4;270;379;18;3;140;1114;4;177;500;20;4;184;1526;5;191;225;18;5;509;4104;4;247;223;395;607;28;6;367;2905;4;183;196;548;520;28;7;226;1882;4;262;465;21;8;229;1916;4;268;457;21;9;119;994;4;147;509;18
05.11.19;14:40:00;1;319;3697;0;2;512;1845;4;551;399;19;3;314;1102;4;362;501;21;4;443;1511;5;462;234;18;5;1049;4058;4;526;453;416;664;28;6;782;2872;4;409;402;586;560;28;7;479;1863;4;513;393;17;8;579;1897;4;626;478;21;9;306;984;4;345;525;18
05.11.19;14:35:00;1;269;3670;0;2;501;1802;4;543;397;18;3;313;1076;4;360;511;21;4;438;1474;5;456;238;18;5;1063;3970;4;529;455;416;663;28;6;795;2805;4;407;401;582;561;28;7;570;1815;4;625;472;21;8;585;1849;4;630;470;21;9;311;959;4;351;522;18
05.11.19;14:30:00;1;266;3648;0;2;462;1760;4;504;398;18;3;286;1050;4;333;501;20;4;407;1438;5;423;234;18;5;981;3882;4;488;421;416;655;28;6;735;2739;4;369;363;582;565;28;7;528;1767;4;575;476;21;8;544;1800;4;583;472;21;9;288;932;4;326;517;18
05.11.19;14:25:00;1;306;3626;0;2;506;1722;4;548;398;18;3;312;1026;4;360;508;20;4;432;1404;5;450;235;18;5;1039;3802;4;530;450;410;651;28;6;776;2679;4;384;387;584;565;28;7;513;1723;4;557;466;21;8;514;1754;4;560;474;21;9;272;909;4;309;517;18
05.11.19;14:20:00;1;245;3602;0;2;661;1680;4;708;405;18;3;414;1000;4;465;514;20;4;578;1368;5;602;242;18;5;1330;3712;4;681;581;418;693;28;6;1003;2611;4;508;502;584;570;28;7;709;1680;4;758;477;21;8;711;1711;4;761;478;21;9;382;885;4;423;520;18
05.11.19;14:15:00;1;246;3581;0;2;622;1624;4;667;403;18;3;393;965;4;445;518;20;4;554;1319;5;577;241;17;5;1306;3600;4;660;562;425;684;28;6;992;2527;4;504;497;594;567;28;7;718;1621;4;767;474;21;8;464;1652;4;491;280;12;9;228;853;4;251;314;10
05.11.19;14:10:00;1;297;3561;0;2;370;1572;4;407;393;17;3;231;933;4;273;503;20;4;317;1273;5;330;237;17;5;783;3496;4;380;340;410;653;28;6;546;2446;4;278;287;502;508;28;7;409;1561;4;455;478;21;8;420;1588;4;472;473;21;9;232;821;4;265;525;17
05.11.19;14:05:00;1;227;3539;0;2;305;1541;4;339;389;17;3;189;913;4;227;497;20;4;248;1246;5;258;233;17;5;619;3432;4;291;273;400;629;28;6;378;2403;4;187;184;438;442;28;7;304;1527;4;346;483;21;8;315;1552;4;356;476;21;9;171;801;4;200;522;17
05.11.19;14:00:00;1;203;3520;0;2;272;1516;4;306;381;17;3;165;897;4;203;496;20;4;220;1225;5;229;230;17;5;568;3381;4;279;249;406;620;28;6;347;2371;4;180;181;438;442;28;7;189;1501;4;217;305;14;8;284;1526;4;321;472;21;9;153;787;4;183;516;17
05.11.19;13:55:00;1;203;3503;0;2;241;1493;4;276;382;17;3;148;884;4;187;500;20;4;198;1207;5;206;229;17;5;530;3334;4;264;226;406;598;28;6;329;2342;4;150;155;438;442;28;7;261;1478;4;307;460;21;8;272;1502;4;310;474;21;9;151;774;4;177;519;17
05.11.19;13:50:00;1;203;3486;0;2;212;1473;4;244;382;17;3;130;871;4;164;474;20;4;164;1191;5;171;229;17;5;460;3290;4;214;199;398;592;28;6;290;2315;4;155;164;438;442;28;7;217;1456;4;255;468;21;8;221;1480;4;262;459;21;9;120;761;4;150;505;17
05.11.19;13:45:00;1;203;3469;0;2;217;1455;4;245;384;17;3;131;860;4;167;480;20;4;169;1177;5;176;224;17;5;476;3252;4;216;209;402;627;28;6;294;2291;4;144;154;438;442;28;7;218;1438;4;250;452;21;8;217;1461;4;251;457;21;9;118;751;4;143;509;17